Location: Piotrkow Trybunalski
(51.4000°N, 19.6830°E)
Time: 05:25:40
(UTC+02:00)

A-11 Canister half - All Passes

Search period start: 23 September 2023 00:00
Search period end: 03 October 2023 00:00
Orbit: 1515 x 1684 km, 47.2° (Epoch: 22 September)

Date Brightness Start Highest point End Pass type
(mag) Time Alt. Az. Time Alt. Az. Time Alt. Az.
23 Sep - 00:01:27 10° W 00:10:42 69° S 00:19:51 10° ESE visible
23 Sep - 02:06:08 10° W 02:14:50 48° SSW 02:23:32 10° SE visible
23 Sep - 04:11:57 10° W 04:17:54 19° SW 04:23:54 10° S visible
23 Sep - 19:32:22 10° S 19:39:57 28° SE 19:47:22 10° E visible
23 Sep - 21:34:19 10° SW 21:43:28 57° SSE 21:52:26 10° E visible
23 Sep - 23:38:31 10° W 23:47:47 69° S 23:56:56 10° ESE visible
24 Sep - 01:43:10 10° W 01:51:56 49° SSW 02:00:42 10° SE visible
24 Sep - 03:48:50 10° W 03:55:05 21° SW 04:01:23 10° S visible
24 Sep - 19:09:41 10° S 19:17:07 26° SE 19:24:22 10° E visible
24 Sep - 21:11:26 10° SW 21:20:34 55° SSE 21:29:30 10° E visible
24 Sep - 23:15:34 10° W 23:24:52 70° S 23:34:01 10° ESE visible
25 Sep - 01:20:14 10° W 01:29:04 51° SSW 01:37:52 10° SE visible
25 Sep - 03:25:46 10° W 03:32:16 22° SW 03:38:49 10° S visible
25 Sep - 18:47:01 10° S 18:54:16 25° SE 19:01:21 10° E daylight
25 Sep - 20:48:32 10° SW 20:57:40 54° SSE 21:06:35 10° E visible
25 Sep - 22:52:38 10° W 23:01:57 70° S 23:11:07 10° E visible
26 Sep - 00:57:17 10° W 01:06:11 52° SSW 01:15:01 10° SE visible
26 Sep - 03:02:41 10° W 03:09:27 23° SW 03:16:13 10° S night (unlit)
26 Sep - 18:24:23 10° S 18:31:25 24° SE 18:38:18 10° E daylight
26 Sep - 20:25:39 10° SW 20:34:46 52° SSE 20:43:39 10° E visible
26 Sep - 22:29:41 10° W 22:39:01 70° S 22:48:11 10° E visible
27 Sep - 00:34:20 10° W 00:43:17 54° SSW 00:52:10 10° SE visible
27 Sep - 02:39:39 10° W 02:46:37 25° SW 02:53:36 10° S night (unlit)
27 Sep - 18:01:46 10° S 18:08:35 22° SE 18:15:16 10° E daylight
27 Sep - 20:02:46 10° SW 20:11:52 51° SSE 20:20:44 10° E visible
27 Sep - 22:06:44 10° WSW 22:16:06 70° S 22:25:16 10° E visible
28 Sep - 00:11:22 10° W 00:20:23 56° SSW 00:29:18 10° SE visible
28 Sep - 02:16:37 10° W 02:23:47 26° SW 02:30:59 10° S night (unlit)
28 Sep - 17:39:11 10° S 17:45:45 21° SE 17:52:12 10° E daylight
28 Sep - 19:39:54 10° SW 19:48:58 49° SSE 19:57:48 10° E visible
28 Sep - 21:43:47 10° WSW 21:53:11 69° S 22:02:21 10° E visible
28 Sep - 23:48:26 10° W 23:57:29 57° SSW 00:06:26 10° SE visible
29 Sep - 01:53:35 10° W 02:00:57 28° SW 02:08:19 10° S visible
29 Sep - 17:16:37 10° S 17:22:56 20° SE 17:29:06 10° E daylight
29 Sep - 19:17:02 10° SW 19:26:05 48° SSE 19:34:52 10° E visible
29 Sep - 21:20:50 10° WSW 21:30:15 69° S 21:39:26 10° E visible
29 Sep - 23:25:29 10° W 23:34:36 59° SSW 23:43:35 10° ESE visible
30 Sep - 01:30:34 10° W 01:38:08 29° SW 01:45:38 10° SSE visible
30 Sep - 16:54:05 10° S 17:00:06 18° SE 17:05:59 10° E daylight
30 Sep - 18:54:11 10° SW 19:03:11 46° SSE 19:11:56 10° E visible
30 Sep - 20:57:53 10° WSW 21:07:19 69° S 21:16:31 10° E visible
30 Sep - 23:02:31 10° W 23:11:42 60° SSW 23:20:42 10° ESE visible
01 Oct - 01:07:34 10° W 01:15:17 31° SW 01:22:57 10° SSE visible
01 Oct - 16:31:36 10° SSE 16:37:16 17° SE 16:42:49 10° E daylight
01 Oct - 18:31:20 10° SW 18:40:18 45° SSE 18:49:00 10° E daylight
01 Oct - 20:34:56 10° WSW 20:44:24 68° S 20:53:36 10° E visible
01 Oct - 22:39:34 10° W 22:48:47 61° SSW 22:57:49 10° ESE visible
02 Oct - 00:44:33 10° W 00:52:26 32° SW 01:00:15 10° SSE visible
02 Oct - 16:09:10 10° SSE 16:14:27 16° SE 16:19:38 10° E daylight
02 Oct - 18:08:29 10° SW 18:17:25 43° SSE 18:26:04 10° E daylight
02 Oct - 20:11:59 10° WSW 20:21:29 68° S 20:30:41 10° E visible
02 Oct - 22:16:36 10° W 22:25:53 63° SSW 22:34:56 10° ESE visible
